Location: Namasale
(1.5000°N, 32.6167°E)
Time: 19:47:23
(UTC+00:00)

ATLAS 5 CENTAUR R/B - Pass Details

Date: 09 April 2020
Orbit: 543 x 1116 km, 63.4° (Epoch: 01 May)

Event Time Altitude Azimuth Distance (km) Brightness Sun altitude
Rises 16:22:31 0° 229° (SW) 2,784 5.6 -7.6°
Reaches altitude 10° 16:25:18 10° 248° (WSW) 1,836 5.0 -8.3°
Maximum altitude 16:28:11 19° 293° (WNW) 1,339 4.5 -9.0°
Drops below altitude 10° 16:31:01 10° 339° (NNW) 1,797 4.3 -9.7°
Sets 16:33:44 0° 358° (N) 2,703 5.0 -10.4°
